FALCON 9 DEB (46176 NORAD) Tracking and Keplerian Element Data

This shows tracking and keplerian element data for the satellite.

Feedback or suggestion? Click here.




ElementValue
Catalog46176
NameFALCON 9 DEB
Epoch Orbit498
Epoch Day262.49433153
Epoch Year2020
RAAN280.3791
Inclination52.9769
Eccentricity0.0009263
Argument of Perigee164.1025
Mean Anonmoly196.0317
Mean Motion16.48482704
Decay Rate0.11589625
L11 46176U 20057BM 20262.49433153 .11589625 12452-4 15856-3 0 9995
L22 46176 52.9769 280.3791 0009263 164.1025 196.0317 16.48482704 4985

Live tracking and technical data element details for FALCON 9 DEB (NORAD 46176). FALCON 9 DEB can be tracked NOW for your location showing map with azimuth and elevation plus other details from your city location.

Track the satellite on the map from your city or location and see movement details for azimuth, elevation, latitude, longitude, range, height, and movement on the map or in text.







IsCatalogInMostPopularTable: catalog: 46176, numindb: 4
Update: records affected: 1



GetName: 46176 FALCON 9 DEB

Hit Count: updated at: Thu, 24 Sep 2020 17:28:58 GMT